Racine, WI

10:44 AM CST on January 20, 2017 (GMT -0600)
Batten

Weather History for KRAC - January, 2013

Change the Weather History Date:

Monday, January 14, 2013

  Actual Average Record
Temperature  
Mean Temperature 18 °F -  
Max Temperature 25 °F 28 °F 46 °F (1953)
Min Temperature 10 °F 15 °F -10 °F (1965)
Degree Days  
Heating Degree Days 48    
Moisture  
Dew Point 7 °F    
Average Humidity 68    
Maximum Humidity 81    
Minimum Humidity 51    
Precipitation  
Precipitation 0.00 in - - ()
Sea Level Pressure  
Sea Level Pressure 30.43 in    
Wind  
Wind Speed 7 mph (West)    
Max Wind Speed 10 mph    
Max Gust Speed -    
Visibility 10 miles    
Events      
Averages and records for this station are not official NWS values.
T = Trace of Precipitation, MM = Missing Value Source: NWS Daily Summary

Daily Weather History Graph

Daily Weather History Graph

Search for Another Location

Airport or City:

Trip Planner

Search our weather history database for the weather conditions in past years. The results will help you decide how hot, cold, wet, or windy it might be!

Date:

Astronomy

Jan. 14, 2013 Rise Set
Actual Time 7:19 AM CST 4:41 PM CST
Civil Twilight 6:47 AM CST 5:13 PM CST
Nautical Twilight 6:13 AM CST 5:48 PM CST
Astronomical Twilight 5:39 AM CST 6:22 PM CST
Moon 8:47 AM CST (1/14) 8:33 PM CST (1/14)
Length of Visible Light 10h 25m
Length of Day
9h 22m
Waxing Crescent, 11% of the Moon is Illuminated
Jan 14
Waxing Crescent
Jan 18
First Quarter
Jan 26
Full
Feb 3
Last Quarter
Feb 10
New

Hourly Weather History & Observations

Time (CST) Temp. Windchill Dew Point Humidity Pressure Visibility Wind Dir Wind Speed Gust Speed Precip Events Conditions
12:53 AM 14.0 °F 2.9 °F 5.0 °F 67% 30.27 in 10.0 mi WNW 8.1 mph - N/A   Clear
1:53 AM 12.9 °F 2.6 °F 5.0 °F 71% 30.31 in 10.0 mi West 6.9 mph - N/A   Clear
2:53 AM 12.9 °F 1.6 °F 3.9 °F 67% 30.33 in 10.0 mi WNW 8.1 mph - N/A   Clear
3:53 AM 12.0 °F 2.7 °F 5.0 °F 73% 30.36 in 10.0 mi West 5.8 mph - N/A   Clear
4:53 AM 12.0 °F 4.1 °F 5.0 °F 73% 30.38 in 10.0 mi Variable 4.6 mph - N/A   Clear
5:53 AM 10.9 °F 1.4 °F 6.1 °F 81% 30.42 in 10.0 mi SW 5.8 mph - N/A   Clear
6:53 AM 10.9 °F -2.6 °F 5.0 °F 77% 30.45 in 10.0 mi West 10.4 mph - N/A   Clear
7:53 AM 10.9 °F 0.2 °F 5.0 °F 77% 30.48 in 10.0 mi West 6.9 mph - N/A   Clear
8:53 AM 12.9 °F -0.2 °F 6.1 °F 74% 30.47 in 10.0 mi West 10.4 mph - N/A   Clear
9:53 AM 16.0 °F 5.3 °F 7.0 °F 68% 30.45 in 10.0 mi WNW 8.1 mph - N/A   Clear
10:53 AM 18.0 °F 9.8 °F 7.0 °F 62% 30.45 in 10.0 mi West 5.8 mph - N/A   Clear
11:53 AM 19.9 °F 8.6 °F 6.1 °F 55% 30.44 in 10.0 mi NW 10.4 mph - N/A   Clear
1:53 PM 24.1 °F 18.2 °F 8.1 °F 51% 30.45 in 10.0 mi WSW 4.6 mph - N/A   Clear
2:53 PM 25.0 °F 18.1 °F 9.0 °F 51% 30.46 in 10.0 mi WSW 5.8 mph - N/A   Clear
3:53 PM 24.1 °F 16.0 °F 9.0 °F 53% 30.46 in 10.0 mi WSW 6.9 mph - N/A   Clear
4:53 PM 21.9 °F 15.7 °F 9.0 °F 58% 30.46 in 10.0 mi SW 4.6 mph - N/A   Clear
5:53 PM 19.9 °F 13.4 °F 10.0 °F 65% 30.45 in 10.0 mi SW 4.6 mph - N/A   Clear
6:53 PM 19.0 °F 11.1 °F 10.0 °F 68% 30.45 in 10.0 mi WSW 5.8 mph - N/A   Clear
7:53 PM 19.0 °F 11.1 °F 10.0 °F 68% 30.46 in 10.0 mi WSW 5.8 mph - N/A   Clear
8:53 PM 18.0 °F 8.7 °F 10.0 °F 71% 30.45 in 10.0 mi WSW 6.9 mph - N/A   Clear
9:53 PM 17.1 °F 10.0 °F 10.0 °F 74% 30.45 in 10.0 mi WSW 4.6 mph - N/A   Clear
10:53 PM 16.0 °F 7.4 °F 10.0 °F 77% 30.44 in 10.0 mi WSW 5.8 mph - N/A   Clear
11:53 PM 16.0 °F 7.4 °F 10.0 °F 77% 30.45 in 10.0 mi WSW 5.8 mph - N/A   Clear